Terminal Aerodrome Forecast
Issued by NWS

Home | Current Version | Previous Version | Text Only | Print | Product List | Glossary On
Versions: 1 2 3 4 5 6 7 8 9 10 11 12 13 14 15 16 17 18 19 20 21 22 23 24 25 26 27 28 29 30 31 32 33 34 35 36 37 38 39 40
000
FTUS46 KOTX 281720
TAFSFF
TAF
KSFF 281720Z 2818/2918 20008KT P6SM BKN015 OVC050
      TEMPO 2818/2820 SCT015 OVC050
     FM282000 18008KT P6SM BKN050 BKN100 OVC200
     FM282200 20011G17KT P6SM -SHRA BKN040 OVC120
     FM290200 19007KT P6SM SCT040 BKN100
     FM290800 17005KT P6SM -RA BKN025 OVC060
     FM291100 15005KT P6SM -RA OVC015=

USA.gov is the U.S. government's official web portal to all federal, state and local government web resources and services.